Other Public Products
Issued by NWS Grand Forks, ND

Home | Current Version | Previous Version | Graphics & Text | Print | Product List | Glossary On
Versions: 1 2 3 4 5 6 7 8 9 10 11 12 13 14 15 16 17 18 19 20 21 22 23 24 25 26 27 28 29 30 31 32 33 34 35 36 37 38 39 40 41 42 43 44 45 46 47 48 49 50
000
FPUS83 KFGF 190710
OPUFGF
PRAIRIE TO PINES WEATHER ROUNDUP
NATIONAL WEATHER SERVICE EASTERN NORTH DAKOTA/GRAND FORKS ND
200 AM CDT FRI SEP 19 2014

 **SATELLITE DATA USED TO AUGMENT SKY COVER AT AUTOMATED STATIONS**
 *****  WEATHER ACROSS EASTERN NORTH DAKOTA  *****

CITY           SKY/WX    TMP DP  RH WIND       PRES   REMARKS
GRAND FORKS    CLOUDY    67  57  70 S22G31    29.63F
GRAND FORKS AF CLOUDY    68  60  75 SW23G35   29.62F
GRAND CITY NWS   N/A     66 N/A N/A S32         N/A
BUXTON         NOT AVBL
DEVILS LAKE    CLOUDY    68  57  68 S23G29    29.60S
FARGO          CLOUDY    66  55  67 S15G24    29.75F
WAHPETON ARPT  CLOUDY    63  52  67 S16G22    29.78F
$$

 *****  WEATHER ACROSS CENTRAL AND WESTERN NORTH DAKOTA  *****

CITY           SKY/WX    TMP DP  RH WIND       PRES   REMARKS
JAMESTOWN      CLOUDY    64  58  80 S15       29.67F
BISMARCK       CLOUDY    67  60  78 S8        29.65F
MINOT          CLOUDY    70  60  70 SW14      29.56F
MINOT AFB      CLOUDY    70  61  73 SW9       29.55F
GARRISON         N/A     66  64  93 SW8       29.60F
WILLISTON      CLOUDY    62  54  74 SW7       29.59F
DICKINSON      LGT RAIN  69  54  58 W12       29.65F
HETTINGER      CLOUDY    65  54  67 W5        29.72F
$$

 *****  OTHER OBSERVATIONS NORTHEAST NORTH DAKOTA  *****

CITY           SKY/WX    TMP DP  RH WIND       PRES   REMARKS
WALHALLA         N/A     70  64  83 S15G29    29.55F
LANGDON        FAIR      66  59  77 SW17G23   29.59F
CAVALIER       FAIR      68  59  73 S14       29.57F
GRAFTON        FAIR      66  59  77 S18G28    29.59F
CANDO          FAIR      68  59  73 SW17      29.58F
FORT TOTTEN      N/A     67  59  75 S14       29.95S
ROLLA          FAIR      68  64  88 SW15G22   29.56F
RUGBY          FAIR      68  63  83 S14       29.57F
 ***** THE ABOVE OBSERVATIONS ARE NON NWS ARE NOT QUALITY
        CONTROLLED AND MAY MIS-REPORT RAIN FOR SNOW...
$$

 *****  OTHER OBSERVATIONS SOUTHEAST NORTH DAKOTA *****

CITY           SKY/WX    TMP DP  RH WIND       PRES   REMARKS
COOPERSTOWN    NOT AVBL
VALLEY CITY    PTSUNNY   64  61  88 S14G22    29.71F
OAKES            N/A     66  59  77 S22G30    29.72S
GWINNER        SUNNY     66  57  72 S15       29.73F
BUFFALO        NOT AVBL
WYNDMERE         N/A     64  55  72 S9          N/A
 ***** THE ABOVE OBSERVATIONS ARE NON NWS ARE NOT QUALITY
       CONTROLLED AND MAY MIS-REPORT RAIN FOR SNOW...
$$

  *****  WEATHER ACROSS NORTHERN MINNESOTA  *****

CITY           SKY/WX    TMP DP  RH WIND       PRES   REMARKS
FLAG ISLAND    MOCLDY    61  55  82 S20       29.66S
WARROAD        CLOUDY    63  55  77 S16G23    29.66S
ROSEAU         CLOUDY    63  55  77 S16       29.65F
HALLOCK        CLOUDY    68  57  68 S18G26    29.60F
THF RVR FALLS  CLOUDY    66  54  63 S18G28    29.68F
HALSTAD          N/A     63  55  76 S17         N/A
FOSSTON        CLOUDY    63  52  67 S18G29    29.76F
BAUDETTE       MOCLDY    58  53  84 S13G18    29.71F
WASKISH        CLOUDY    59  55  88 S10G17    29.76F
CROOKSTON      CLOUDY    66  55  68 S24G35    29.67F
$$
  *****  WEATHER ACROSS CENTRAL AND WEST MINNESOTA  *****

CITY           SKY/WX    TMP DP  RH WIND       PRES   REMARKS
BEMIDJI        CLOUDY    62  51  68 S13G21    29.80S
PARK RAPIDS    CLOUDY    59  51  75 S13       29.84S
WADENA         CLOUDY    59  50  72 S12       29.85S
DETROIT LAKES  CLOUDY    64  54  68 S10       29.83R
MOORHEAD       CLOUDY    64  57  77 S12G20    29.76F
FERGUS FALLS   CLOUDY    63  50  63 S18       29.82F
ELBOW LAKE     FAIR      60  53  76 S17       29.84S
MORRIS MN      CLOUDY    61  54  77 S13       29.85R
STAPLES        CLOUDY    59  48  67 S10G20    29.87R
WHEATON        CLOUDY    59  54  82 SE10G20   29.82F
$$
  *****  WEATHER ELSEWHERE ACROSS MINNESOTA  *****

CITY           SKY/WX    TMP DP  RH WIND       PRES   REMARKS
DULUTH         MOCLDY    53  50  89 S15       29.95F
INTRNTL FALLS  CLOUDY    55  51  86 VRB6      29.80S
ELY            CLOUDY    52  48  87 S10G17    29.91F
CLOQUET        NOT AVBL
BRAINERD       CLOUDY    57  51  80 S13       29.88F
HIBBING        CLOUDY    55  51  86 S8        29.91F
ALEXANDRIA     MOCLDY    62  52  69 S18G24    29.89R
SAINT CLOUD    MOCLDY    63  52  67 S13       29.93S
MINNEAPOLIS    PTCLDY    59  52  77 SE13      29.99S
$$

  *****  WEATHER ACROSS SOUTH DAKOTA  *****

CITY           SKY/WX    TMP DP  RH WIND       PRES   REMARKS
SIOUX FALLS    CLOUDY    62  55  77 S21G29    29.89F
BROOKINGS      NOT AVBL
WATERTOWN      CLOUDY    62  55  77 S17       29.82F
HURON          CLOUDY    66  58  75 S15G28    29.77F
SISSETON         N/A     61  56  83 S10       29.77F
ABERDEEN       CLOUDY    65  58  78 S18G26    29.74F
MITCHELL       CLOUDY    65  58  78 S18G28    29.82S
PIERRE         MOCLDY    64  60  87 SE14      29.68F
MOBRIDGE       LGT RAIN  66  62  87 S14       29.65F
RAPID CITY     CLOUDY    71  54  54 N21G29    29.76S
$$

  *****  SOME WEATHER IN NEARBY STATES *****

CITY           SKY/WX    TMP DP  RH WIND       PRES   REMARKS
GLASGOW MT     MOCLDY    61  52  72 NW5       29.62R
GREAT FALLS MT MOCLDY    57  44  62 SW9       29.77S
CHEYENNE WY    CLEAR     60  41  49 W8        30.00R
SCOTTSBLUFF NE CLEAR     62  59  90 E8        29.85F
OMAHA NE       CLEAR     61  57  87 SE10      29.99S
DES MOINES IA  PTCLDY    60  55  83 SE9       30.04S
DAVENPORT IA   CLEAR     54  50  86 SE9       30.12F
CHICAGO IL     CLEAR     56  54  93 N3        30.16S
EAU CLAIRE WI  CLEAR     54  51  90 S9        30.05S
LA CROSSE WI   CLEAR     59  53  80 S13       30.08S
$$

  *****  SOME NATIONAL WEATHER *****

CITY           SKY/WX    TMP DP  RH WIND       PRES   REMARKS
LA GUARDIA NY  CLEAR     60  50  69 N9        30.16R
RALEIGH NC     PTCLDY    66  59  78 SE6       30.09S
ATLANTA GA     CLOUDY    71  66  84 CALM      30.03R
NEW ORLEANS LA LGT RAIN  75  68  78 E15       29.92S
OKLAHOMA CITY  PTCLDY    67  64  90 SE3       29.97S
ALBUQUERQUE NM MOCLDY    67  58  72 CALM      30.08F
SALT LAKE CITY PTCLDY    67  51  56 N8        29.92R
LOS ANGELES CA PTCLDY    69  61  75 W14       29.86S
BOISE ID       CLEAR     66  44  45 W7        29.90R
SEATTLE WA     MOCLDY    63  57  82 S6        29.99S
$$

*** WEATHER ACROSS MANITOBA...SASKATCHEWAN AND ONTARIO ***
                ***ONTARIO***

CITY           SKY/WX    TMP DP  RH WIND       PRES   REMARKS
GERALDTON      CLOUDY    41  36  81 S7        29.98F
THUNDER BAY    CLOUDY    46  43  87 E3        30.00F
SIOUX LOOKOUT  LGT RAIN  50  48  93 S10G23    29.75F
TORONTO        CLEAR     43  36  75 NE7       30.28R
BIG TROUT LK   CLOUDY    48  39  71 S15G25    29.60F
PICKLE LAKE    NOT AVBL
DRYDEN         CLOUDY    52  48  87 S16G24    29.74F
KENORA         CLOUDY    59  54  82 S21G29    29.66F
$$
                *** MANITOBA***

CITY           SKY/WX    TMP DP  RH WIND       PRES   REMARKS
BRANDON        CLOUDY    64  59  82 SW10      29.49F
DAUPHIN        MOCLDY    68  61  77 W8        29.42S
ISLAND LAKE    LGT RAIN  52  50  93 S6        29.46F
PILOT MOUND    NOT AVBL
THE PAS        NOT AVBL
THOMPSON       DRIZZLE   52  52 100 W5        29.42F
WINNIPEG       CLOUDY    68  61  77 S22G35    29.51F
LYNN LAKE      CLOUDY    50  46  87 NW6       29.49R
CHURCHILL      CLOUDY    43  43 100 W8        29.36S
GILLAM         DRZL/FOG  50  50 100 SW7       29.40F VSB 3/4
$$
                ***SASKATCHEWAN***

CITY           SKY/WX    TMP DP  RH WIND       PRES   REMARKS
ESTEVAN        CLOUDY    61  55  82 SW6       29.55S
KINDERSLEY     LGT RAIN  55  54  94 E9        29.56F
LLOYDMINSTER   CLOUDY    54  48  82 W5        29.58S
PRINCE ALBERT  MOCLDY    52  50  93 NW2       29.52S
REGINA         MOCLDY    57  54  88 W7        29.52F
YORKTON        MOCLDY    59  55  88 W6        29.48F



USA.gov is the U.S. government's official web portal to all federal, state and local government web resources and services.